Time,TemperatureF,DewpointF,PressureIn,WindDirection,WindDirectionDegrees,WindSpeedMPH,WindSpeedGustMPH,Humidity,HourlyPrecipIn,Conditions,Clouds,dailyrainin,SoftwareType,DateUTC
2013-07-22 00:01:00,76.7,70.0,29.93,ENE,59,0.0,0.0,80,0.00,,,0.00,WeatherCatV1.02B3,2013-07-22 04:01:00,
2013-07-22 00:06:00,76.6,70.0,29.93,ENE,59,0.0,0.0,80,0.00,,,0.00,WeatherCatV1.02B3,2013-07-22 04:06:00,
2013-07-22 00:11:00,76.5,69.9,29.94,ENE,59,0.0,0.0,80,0.00,,,0.00,WeatherCatV1.02B3,2013-07-22 04:11:00,
2013-07-22 00:16:00,76.4,69.8,29.94,ENE,59,0.0,0.0,80,0.00,,,0.00,WeatherCatV1.02B3,2013-07-22 04:16:00,
2013-07-22 00:21:00,76.3,69.7,29.93,ENE,59,0.0,0.0,80,0.00,,,0.00,WeatherCatV1.02B3,2013-07-22 04:21:00,
2013-07-22 00:26:00,76.2,69.6,29.93,ENE,59,0.0,0.0,80,0.00,,,0.00,WeatherCatV1.02B3,2013-07-22 04:26:00,
2013-07-22 00:31:00,76.1,69.5,29.93,ENE,59,0.0,0.0,80,0.00,,,0.00,WeatherCatV1.02B3,2013-07-22 04:31:00,
2013-07-22 00:36:00,76.0,69.4,29.93,ENE,59,0.0,1.0,80,0.00,,,0.00,WeatherCatV1.02B3,2013-07-22 04:36:00,
2013-07-22 00:41:00,75.9,69.6,29.93,ENE,59,0.0,0.0,81,0.00,,,0.00,WeatherCatV1.02B3,2013-07-22 04:41:00,
2013-07-22 00:46:00,75.9,69.3,29.93,ENE,59,0.0,1.0,80,0.00,,,0.00,WeatherCatV1.02B3,2013-07-22 04:46:00,
2013-07-22 00:51:00,75.9,69.3,29.93,ENE,59,0.0,0.0,80,0.00,,,0.00,WeatherCatV1.02B3,2013-07-22 04:51:00,
2013-07-22 00:56:00,75.9,69.3,29.93,ENE,59,0.0,0.0,80,0.00,,,0.00,WeatherCatV1.02B3,2013-07-22 04:56:00,
2013-07-22 01:01:00,75.9,69.3,29.93,ENE,59,0.0,0.0,80,0.00,,,0.00,WeatherCatV1.02B3,2013-07-22 05:01:00,
2013-07-22 01:06:00,75.9,69.6,29.94,ENE,59,0.0,0.0,81,0.00,,,0.00,WeatherCatV1.02B3,2013-07-22 05:06:00,
2013-07-22 01:11:00,75.9,69.6,29.94,ENE,59,0.0,0.0,81,0.00,,,0.00,WeatherCatV1.02B3,2013-07-22 05:11:00,
2013-07-22 01:16:00,75.8,69.5,29.93,ENE,59,0.0,0.0,81,0.00,,,0.00,WeatherCatV1.02B3,2013-07-22 05:16:00,
2013-07-22 01:21:00,75.8,69.5,29.93,ENE,59,0.0,0.0,81,0.00,,,0.00,WeatherCatV1.02B3,2013-07-22 05:21:00,
2013-07-22 01:26:00,75.7,69.8,29.93,ENE,59,0.0,0.0,82,0.00,,,0.00,WeatherCatV1.02B3,2013-07-22 05:26:00,
2013-07-22 01:31:00,75.6,69.7,29.93,ENE,59,0.0,0.0,82,0.00,,,0.00,WeatherCatV1.02B3,2013-07-22 05:31:00,
2013-07-22 01:36:00,75.5,69.6,29.93,ENE,59,0.0,0.0,82,0.00,,,0.00,WeatherCatV1.02B3,2013-07-22 05:36:00,
2013-07-22 01:41:00,75.5,69.6,29.93,ENE,59,0.0,0.0,82,0.00,,,0.00,WeatherCatV1.02B3,2013-07-22 05:41:00,
2013-07-22 01:46:00,75.4,69.5,29.92,ENE,59,0.0,0.0,82,0.00,,,0.00,WeatherCatV1.02B3,2013-07-22 05:46:00,
2013-07-22 01:51:00,75.3,69.4,29.92,ENE,59,0.0,0.0,82,0.00,,,0.00,WeatherCatV1.02B3,2013-07-22 05:51:00,
2013-07-22 01:56:00,75.3,69.8,29.92,ENE,59,0.0,0.0,83,0.00,,,0.00,WeatherCatV1.02B3,2013-07-22 05:56:00,
2013-07-22 02:01:00,75.2,69.7,29.92,ENE,59,0.0,0.0,83,0.00,,,0.00,WeatherCatV1.02B3,2013-07-22 06:01:00,
2013-07-22 02:06:00,75.2,69.7,29.92,ENE,59,0.0,0.0,83,0.00,,,0.00,WeatherCatV1.02B3,2013-07-22 06:06:00,
2013-07-22 02:11:00,75.1,69.6,29.92,ENE,59,0.0,0.0,83,0.00,,,0.00,WeatherCatV1.02B3,2013-07-22 06:11:00,
2013-07-22 02:16:00,75.0,69.8,29.92,ENE,59,0.0,0.0,84,0.00,,,0.00,WeatherCatV1.02B3,2013-07-22 06:16:00,
2013-07-22 02:21:00,74.9,69.7,29.92,ENE,59,0.0,0.0,84,0.00,,,0.00,WeatherCatV1.02B3,2013-07-22 06:21:00,
2013-07-22 02:26:00,74.8,70.0,29.92,ENE,59,0.0,0.0,85,0.00,,,0.00,WeatherCatV1.02B3,2013-07-22 06:26:00,
2013-07-22 02:31:00,74.8,70.0,29.91,ENE,59,0.0,1.0,85,0.00,,,0.00,WeatherCatV1.02B3,2013-07-22 06:31:00,
2013-07-22 02:36:00,74.7,69.9,29.91,ENE,59,0.0,0.0,85,0.00,,,0.00,WeatherCatV1.02B3,2013-07-22 06:36:00,
2013-07-22 02:41:00,74.7,70.2,29.91,ENE,59,0.0,0.0,86,0.00,,,0.00,WeatherCatV1.02B3,2013-07-22 06:41:00,
2013-07-22 02:46:00,74.7,70.2,29.91,ENE,59,0.0,0.0,86,0.00,,,0.00,WeatherCatV1.02B3,2013-07-22 06:46:00,
2013-07-22 02:51:00,74.7,70.2,29.91,ENE,59,0.0,0.0,86,0.00,,,0.00,WeatherCatV1.02B3,2013-07-22 06:51:00,
2013-07-22 02:56:00,74.7,70.2,29.91,ENE,59,0.0,0.0,86,0.00,,,0.00,WeatherCatV1.02B3,2013-07-22 06:56:00,
2013-07-22 03:01:00,74.8,70.3,29.91,ENE,59,0.0,0.0,86,0.00,,,0.00,WeatherCatV1.02B3,2013-07-22 07:01:00,
2013-07-22 03:06:00,74.8,70.3,29.91,ENE,59,0.0,0.0,86,0.00,,,0.00,WeatherCatV1.02B3,2013-07-22 07:06:00,
2013-07-22 03:11:00,74.8,70.3,29.91,ENE,59,0.0,0.0,86,0.00,,,0.00,WeatherCatV1.02B3,2013-07-22 07:11:00,
2013-07-22 03:16:00,74.8,70.3,29.91,ENE,59,0.0,0.0,86,0.00,,,0.00,WeatherCatV1.02B3,2013-07-22 07:16:00,
2013-07-22 03:21:00,74.8,70.3,29.91,ENE,59,0.0,0.0,86,0.00,,,0.00,WeatherCatV1.02B3,2013-07-22 07:21:00,
2013-07-22 03:26:00,74.8,70.3,29.91,ENE,59,0.0,0.0,86,0.00,,,0.00,WeatherCatV1.02B3,2013-07-22 07:26:00,
2013-07-22 03:31:00,74.8,70.3,29.91,ENE,59,0.0,1.0,86,0.00,,,0.00,WeatherCatV1.02B3,2013-07-22 07:31:00,
2013-07-22 03:36:00,74.8,70.3,29.91,ENE,59,0.0,0.0,86,0.00,,,0.00,WeatherCatV1.02B3,2013-07-22 07:36:00,
2013-07-22 03:41:00,74.8,70.3,29.91,ENE,59,0.0,0.0,86,0.00,,,0.00,WeatherCatV1.02B3,2013-07-22 07:41:00,
2013-07-22 03:46:00,74.8,70.3,29.91,ENE,59,0.0,0.0,86,0.00,,,0.00,WeatherCatV1.02B3,2013-07-22 07:46:00,
2013-07-22 03:51:00,74.8,70.7,29.91,East,91,0.0,1.0,87,0.00,,,0.00,WeatherCatV1.02B3,2013-07-22 07:51:00,
2013-07-22 03:56:00,74.8,70.7,29.91,East,91,1.0,1.0,87,0.00,,,0.00,WeatherCatV1.02B3,2013-07-22 07:56:00,
2013-07-22 04:01:00,74.7,70.6,29.91,East,91,0.0,0.0,87,0.00,,,0.00,WeatherCatV1.02B3,2013-07-22 08:01:00,
2013-07-22 04:06:00,74.7,70.6,29.91,East,91,0.0,0.0,87,0.00,,,0.00,WeatherCatV1.02B3,2013-07-22 08:06:00,
2013-07-22 04:11:00,74.7,70.6,29.91,East,91,0.0,0.0,87,0.00,,,0.00,WeatherCatV1.02B3,2013-07-22 08:11:00,
2013-07-22 04:16:00,74.6,70.5,29.91,East,91,0.0,0.0,87,0.00,,,0.00,WeatherCatV1.02B3,2013-07-22 08:16:00,
2013-07-22 04:21:00,74.6,70.5,29.91,East,91,0.0,0.0,87,0.00,,,0.00,WeatherCatV1.02B3,2013-07-22 08:21:00,
2013-07-22 04:26:00,74.6,70.5,29.91,East,91,0.0,0.0,87,0.00,,,0.00,WeatherCatV1.02B3,2013-07-22 08:26:00,
2013-07-22 04:31:00,74.5,70.4,29.91,East,91,0.0,0.0,87,0.00,,,0.00,WeatherCatV1.02B3,2013-07-22 08:31:00,
2013-07-22 04:36:00,74.4,70.3,29.91,East,91,0.0,0.0,87,0.00,,,0.00,WeatherCatV1.02B3,2013-07-22 08:36:00,
2013-07-22 04:41:00,74.3,70.5,29.91,East,91,0.0,1.0,88,0.00,,,0.00,WeatherCatV1.02B3,2013-07-22 08:41:00,
2013-07-22 04:46:00,74.2,70.4,29.91,East,91,0.0,0.0,88,0.00,,,0.00,WeatherCatV1.02B3,2013-07-22 08:46:00,
2013-07-22 04:51:00,74.1,70.3,29.92,East,91,0.0,0.0,88,0.00,,,0.00,WeatherCatV1.02B3,2013-07-22 08:51:00,
2013-07-22 04:56:00,74.0,70.2,29.92,East,91,0.0,0.0,88,0.00,,,0.00,WeatherCatV1.02B3,2013-07-22 08:56:00,
2013-07-22 05:01:00,73.9,70.1,29.92,East,91,0.0,0.0,88,0.00,,,0.00,WeatherCatV1.02B3,2013-07-22 09:01:00,
2013-07-22 05:06:00,73.8,70.0,29.92,East,91,0.0,0.0,88,0.00,,,0.00,WeatherCatV1.02B3,2013-07-22 09:06:00,
2013-07-22 05:11:00,73.7,69.9,29.92,East,91,0.0,1.0,88,0.00,,,0.00,WeatherCatV1.02B3,2013-07-22 09:11:00,
2013-07-22 05:16:00,73.7,70.2,29.92,East,91,0.0,0.0,89,0.00,,,0.00,WeatherCatV1.02B3,2013-07-22 09:16:00,
2013-07-22 05:21:00,73.7,70.2,29.92,East,91,0.0,0.0,89,0.00,,,0.00,WeatherCatV1.02B3,2013-07-22 09:21:00,
2013-07-22 05:26:00,73.7,70.2,29.92,East,91,0.0,1.0,89,0.00,,,0.00,WeatherCatV1.02B3,2013-07-22 09:26:00,
2013-07-22 05:31:00,73.7,70.2,29.92,East,91,0.0,1.0,89,0.00,,,0.00,WeatherCatV1.02B3,2013-07-22 09:31:00,
2013-07-22 05:36:00,73.8,70.3,29.92,East,82,0.0,2.0,89,0.00,,,0.00,WeatherCatV1.02B3,2013-07-22 09:36:00,
2013-07-22 05:41:00,73.8,70.3,29.92,East,101,0.0,1.0,89,0.00,,,0.00,WeatherCatV1.02B3,2013-07-22 09:41:00,
2013-07-22 05:46:00,73.9,70.4,29.92,ESE,102,0.0,0.0,89,0.00,,,0.00,WeatherCatV1.02B3,2013-07-22 09:46:00,
2013-07-22 05:51:00,73.9,70.4,29.92,ENE,61,0.0,2.0,89,0.00,,,0.00,WeatherCatV1.02B3,2013-07-22 09:51:00,
2013-07-22 05:56:00,74.0,70.2,29.92,ENE,72,0.0,0.0,88,0.00,,,0.00,WeatherCatV1.02B3,2013-07-22 09:56:00,
2013-07-22 06:01:00,74.0,70.2,29.93,ENE,72,0.0,0.0,88,0.00,,,0.00,WeatherCatV1.02B3,2013-07-22 10:01:00,
2013-07-22 06:06:00,74.0,70.2,29.93,ENE,72,0.0,1.0,88,0.00,,,0.00,WeatherCatV1.02B3,2013-07-22 10:06:00,
2013-07-22 06:11:00,74.1,70.3,29.93,ENE,72,0.0,0.0,88,0.00,,,0.00,WeatherCatV1.02B3,2013-07-22 10:11:00,
2013-07-22 06:16:00,74.1,70.6,29.93,ENE,72,0.0,0.0,89,0.00,,,0.00,WeatherCatV1.02B3,2013-07-22 10:16:00,
2013-07-22 06:21:00,74.2,70.7,29.93,ENE,71,0.0,1.0,89,0.00,,,0.00,WeatherCatV1.02B3,2013-07-22 10:21:00,
2013-07-22 06:26:00,74.1,70.6,29.93,ENE,71,0.0,0.0,89,0.00,,,0.00,WeatherCatV1.02B3,2013-07-22 10:26:00,
2013-07-22 06:31:00,74.1,71.0,29.93,ENE,71,0.0,0.0,90,0.00,,,0.00,WeatherCatV1.02B3,2013-07-22 10:31:00,
2013-07-22 06:36:00,74.2,71.1,29.93,ENE,71,0.0,0.0,90,0.00,,,0.00,WeatherCatV1.02B3,2013-07-22 10:36:00,
2013-07-22 06:41:00,74.1,71.0,29.92,NE,35,1.0,3.0,90,0.00,,,0.00,WeatherCatV1.02B3,2013-07-22 10:41:00,
2013-07-22 06:46:00,74.1,71.0,29.92,NE,56,1.0,1.0,90,0.00,,,0.00,WeatherCatV1.02B3,2013-07-22 10:46:00,
2013-07-22 06:51:00,74.1,71.0,29.93,NE,56,0.0,1.0,90,0.00,,,0.00,WeatherCatV1.02B3,2013-07-22 10:51:00,
2013-07-22 06:56:00,74.1,71.3,29.93,NE,56,0.0,0.0,91,0.00,,,0.00,WeatherCatV1.02B3,2013-07-22 10:56:00,
2013-07-22 07:01:00,74.1,71.3,29.93,NE,56,0.0,0.0,91,0.00,,,0.00,WeatherCatV1.02B3,2013-07-22 11:01:00,
2013-07-22 07:06:00,74.1,71.3,29.93,NE,56,0.0,1.0,91,0.00,,,0.00,WeatherCatV1.02B3,2013-07-22 11:06:00,
2013-07-22 07:11:00,74.2,71.4,29.93,NE,56,0.0,0.0,91,0.00,,,0.00,WeatherCatV1.02B3,2013-07-22 11:11:00,
2013-07-22 07:16:00,74.3,71.5,29.93,NE,56,0.0,1.0,91,0.00,,,0.00,WeatherCatV1.02B3,2013-07-22 11:16:00,
2013-07-22 07:21:00,74.3,71.5,29.92,ENE,73,0.0,3.0,91,0.00,,,0.00,WeatherCatV1.02B3,2013-07-22 11:21:00,
2013-07-22 07:26:00,74.4,71.6,29.92,NE,39,2.0,2.0,91,0.00,,,0.00,WeatherCatV1.02B3,2013-07-22 11:26:00,
2013-07-22 07:31:00,74.5,71.7,29.92,NNE,31,0.0,0.0,91,0.00,,,0.00,WeatherCatV1.02B3,2013-07-22 11:31:00,
2013-07-22 07:36:00,74.6,71.8,29.92,NE,43,0.0,3.0,91,0.00,,,0.00,WeatherCatV1.02B3,2013-07-22 11:36:00,
2013-07-22 07:41:00,74.7,71.9,29.92,ENE,69,0.0,1.0,91,0.00,,,0.00,WeatherCatV1.02B3,2013-07-22 11:41:00,
2013-07-22 07:46:00,74.8,71.7,29.92,North,350,0.0,5.0,90,0.00,,,0.00,WeatherCatV1.02B3,2013-07-22 11:46:00,
2013-07-22 07:51:00,74.8,72.0,29.92,NNE,25,0.0,0.0,91,0.00,,,0.00,WeatherCatV1.02B3,2013-07-22 11:51:00,
2013-07-22 07:56:00,74.9,72.1,29.92,NE,38,0.0,2.0,91,0.00,,,0.00,WeatherCatV1.02B3,2013-07-22 11:56:00,
2013-07-22 08:01:00,75.2,72.4,29.92,NE,36,0.0,1.0,91,0.00,,,0.00,WeatherCatV1.02B3,2013-07-22 12:01:00,
2013-07-22 08:06:00,75.4,71.9,29.92,ENE,58,4.0,4.0,89,0.00,,,0.00,WeatherCatV1.02B3,2013-07-22 12:06:00,
2013-07-22 08:11:00,75.5,72.0,29.93,NNE,23,1.0,1.0,89,0.00,,,0.00,WeatherCatV1.02B3,2013-07-22 12:11:00,
2013-07-22 08:16:00,75.8,72.3,29.93,ENE,57,0.0,4.0,89,0.00,,,0.00,WeatherCatV1.02B3,2013-07-22 12:16:00,
2013-07-22 08:21:00,76.1,72.6,29.93,ESE,102,0.0,0.0,89,0.00,,,0.00,WeatherCatV1.02B3,2013-07-22 12:21:00,
2013-07-22 08:26:00,76.4,72.2,29.93,NE,45,1.0,6.0,87,0.00,,,0.00,WeatherCatV1.02B3,2013-07-22 12:26:00,
2013-07-22 08:31:00,76.5,72.3,29.93,ENE,58,0.0,1.0,87,0.00,,,0.00,WeatherCatV1.02B3,2013-07-22 12:31:00,
2013-07-22 08:36:00,76.6,72.4,29.93,NNE,17,3.0,4.0,87,0.00,,,0.00,WeatherCatV1.02B3,2013-07-22 12:36:00,
2013-07-22 08:41:00,76.6,72.4,29.93,NE,37,0.0,2.0,87,0.00,,,0.00,WeatherCatV1.02B3,2013-07-22 12:41:00,
2013-07-22 08:46:00,76.7,72.5,29.93,NE,37,0.0,0.0,87,0.00,,,0.00,WeatherCatV1.02B3,2013-07-22 12:46:00,
2013-07-22 08:51:00,76.7,72.2,29.93,ESE,117,0.0,3.0,86,0.00,,,0.00,WeatherCatV1.02B3,2013-07-22 12:51:00,
2013-07-22 08:56:00,76.7,72.2,29.93,NE,52,1.0,2.0,86,0.00,,,0.00,WeatherCatV1.02B3,2013-07-22 12:56:00,
2013-07-22 09:01:00,76.8,72.6,29.93,East,90,0.0,0.0,87,0.00,,,0.00,WeatherCatV1.02B3,2013-07-22 13:01:00,
2013-07-22 09:06:00,76.9,72.4,29.93,NNE,30,2.0,2.0,86,0.00,,,0.00,WeatherCatV1.02B3,2013-07-22 13:06:00,
2013-07-22 09:11:00,77.1,72.6,29.93,East,79,2.0,4.0,86,0.00,,,0.00,WeatherCatV1.02B3,2013-07-22 13:11:00,
2013-07-22 09:16:00,77.2,72.7,29.93,SE,140,0.0,2.0,86,0.00,,,0.00,WeatherCatV1.02B3,2013-07-22 13:16:00,
2013-07-22 09:21:00,77.5,72.6,29.93,NE,40,0.0,1.0,85,0.00,,,0.00,WeatherCatV1.02B3,2013-07-22 13:21:00,
2013-07-22 09:26:00,77.7,72.5,29.93,North,356,0.0,7.0,84,0.00,,,0.00,WeatherCatV1.02B3,2013-07-22 13:26:00,
2013-07-22 09:31:00,77.8,72.6,29.93,North,9,1.0,2.0,84,0.00,,,0.00,WeatherCatV1.02B3,2013-07-22 13:31:00,
2013-07-22 09:36:00,77.8,72.2,29.93,NE,50,1.0,2.0,83,0.00,,,0.00,WeatherCatV1.02B3,2013-07-22 13:36:00,
2013-07-22 09:41:00,77.9,72.3,29.93,East,82,0.0,1.0,83,0.00,,,0.00,WeatherCatV1.02B3,2013-07-22 13:41:00,
2013-07-22 09:46:00,78.0,72.0,29.93,NE,50,0.0,3.0,82,0.00,,,0.00,WeatherCatV1.02B3,2013-07-22 13:46:00,
2013-07-22 09:51:00,78.1,72.5,29.93,SSE,153,0.0,2.0,83,0.00,,,0.00,WeatherCatV1.02B3,2013-07-22 13:51:00,
2013-07-22 09:54:00,78.2,72.6,29.93,NE,50,3.0,5.0,83,0.00,,,0.00,WeatherCatV1.02B3,2013-07-22 13:54:00,
2013-07-22 09:59:00,78.2,72.2,29.93,NNE,33,3.0,3.0,82,0.00,,,0.00,WeatherCatV1.02B3,2013-07-22 13:59:00,
2013-07-22 10:04:00,78.4,72.8,29.93,ESE,108,0.0,2.0,83,0.00,,,0.00,WeatherCatV1.02B3,2013-07-22 14:04:00,
2013-07-22 10:09:00,78.9,72.6,29.93,NE,34,2.0,2.0,81,0.00,,,0.00,WeatherCatV1.02B3,2013-07-22 14:09:00,
2013-07-22 10:14:00,79.2,72.5,29.93,NW,324,0.0,1.0,80,0.00,,,0.00,WeatherCatV1.02B3,2013-07-22 14:14:00,
2013-07-22 10:19:00,79.4,72.7,29.93,ENE,67,0.0,3.0,80,0.00,,,0.00,WeatherCatV1.02B3,2013-07-22 14:19:00,
2013-07-22 10:24:00,79.6,72.1,29.93,NNE,17,0.0,3.0,78,0.00,,,0.00,WeatherCatV1.02B3,2013-07-22 14:24:00,
2013-07-22 10:29:00,79.4,72.3,29.93,ENE,59,1.0,3.0,79,0.00,,,0.00,WeatherCatV1.02B3,2013-07-22 14:29:00,
2013-07-22 10:34:00,79.3,72.6,29.93,ENE,71,0.0,2.0,80,0.00,,,0.00,WeatherCatV1.02B3,2013-07-22 14:34:00,
2013-07-22 10:39:00,79.4,72.7,29.93,North,11,1.0,2.0,80,0.00,,,0.00,WeatherCatV1.02B3,2013-07-22 14:39:00,
2013-07-22 10:44:00,79.6,72.9,29.93,ESE,112,0.0,2.0,80,0.00,,,0.00,WeatherCatV1.02B3,2013-07-22 14:44:00,
2013-07-22 10:49:00,80.1,73.4,29.92,East,90,1.0,2.0,80,0.00,,,0.00,WeatherCatV1.02B3,2013-07-22 14:49:00,
2013-07-22 10:54:00,80.5,73.0,29.92,NE,52,3.0,5.0,78,0.00,,,0.00,WeatherCatV1.02B3,2013-07-22 14:54:00,
2013-07-22 10:59:00,80.6,73.5,29.92,ENE,69,2.0,2.0,79,0.00,,,0.00,WeatherCatV1.02B3,2013-07-22 14:59:00,
2013-07-22 11:04:00,80.8,72.9,29.92,NNE,25,2.0,3.0,77,0.00,,,0.00,WeatherCatV1.02B3,2013-07-22 15:04:00,
2013-07-22 11:09:00,81.2,73.3,29.92,East,95,2.0,4.0,77,0.00,,,0.00,WeatherCatV1.02B3,2013-07-22 15:09:00,
2013-07-22 11:14:00,81.4,73.1,29.92,ENE,59,0.0,1.0,76,0.00,,,0.00,WeatherCatV1.02B3,2013-07-22 15:14:00,
2013-07-22 11:19:00,81.5,73.2,29.92,North,359,0.0,4.0,76,0.00,,,0.00,WeatherCatV1.02B3,2013-07-22 15:19:00,
2013-07-22 11:24:00,81.4,73.9,29.92,NE,34,0.0,1.0,78,0.00,,,0.00,WeatherCatV1.02B3,2013-07-22 15:24:00,
2013-07-22 11:29:00,81.6,73.3,29.92,SSE,147,2.0,2.0,76,0.00,,,0.00,WeatherCatV1.02B3,2013-07-22 15:29:00,
2013-07-22 11:34:00,81.6,73.3,29.92,WSW,250,0.0,1.0,76,0.00,,,0.00,WeatherCatV1.02B3,2013-07-22 15:34:00,
2013-07-22 11:39:00,81.7,73.8,29.92,NE,34,2.0,2.0,77,0.00,,,0.00,WeatherCatV1.02B3,2013-07-22 15:39:00,
2013-07-22 11:44:00,81.9,74.3,29.92,NNE,27,6.0,6.0,78,0.00,,,0.00,WeatherCatV1.02B3,2013-07-22 15:44:00,
2013-07-22 11:49:00,82.2,73.9,29.92,NW,322,1.0,7.0,76,0.00,,,0.00,WeatherCatV1.02B3,2013-07-22 15:49:00,
2013-07-22 11:54:00,82.2,73.5,29.92,NNE,14,1.0,8.0,75,0.00,,,0.00,WeatherCatV1.02B3,2013-07-22 15:54:00,
2013-07-22 11:59:00,82.2,73.5,29.91,ESE,109,1.0,5.0,75,0.00,,,0.00,WeatherCatV1.02B3,2013-07-22 15:59:00,
2013-07-22 12:04:00,82.2,73.9,29.91,NE,45,0.0,5.0,76,0.00,,,0.00,WeatherCatV1.02B3,2013-07-22 16:04:00,
2013-07-22 12:09:00,82.4,74.4,29.91,ENE,57,1.0,3.0,77,0.00,,,0.00,WeatherCatV1.02B3,2013-07-22 16:09:00,
2013-07-22 12:14:00,82.4,74.1,29.91,NE,55,1.0,1.0,76,0.00,,,0.00,WeatherCatV1.02B3,2013-07-22 16:14:00,
2013-07-22 12:19:00,82.5,74.1,29.91,ENE,61,1.0,2.0,76,0.00,,,0.00,WeatherCatV1.02B3,2013-07-22 16:19:00,
2013-07-22 12:24:00,83.0,74.2,29.91,ENE,65,1.0,4.0,75,0.00,,,0.00,WeatherCatV1.02B3,2013-07-22 16:24:00,
2013-07-22 12:29:00,83.3,74.1,29.91,SE,125,0.0,1.0,74,0.00,,,0.00,WeatherCatV1.02B3,2013-07-22 16:29:00,
2013-07-22 12:34:00,83.6,74.4,29.91,NNW,347,3.0,3.0,74,0.00,,,0.00,WeatherCatV1.02B3,2013-07-22 16:34:00,
2013-07-22 12:39:00,83.4,73.8,29.90,ENE,57,0.0,3.0,73,0.00,,,0.00,WeatherCatV1.02B3,2013-07-22 16:39:00,
2013-07-22 12:44:00,83.2,74.0,29.90,SSE,161,1.0,2.0,74,0.00,,,0.00,WeatherCatV1.02B3,2013-07-22 16:44:00,
2013-07-22 12:49:00,83.2,74.0,29.90,NNE,13,1.0,3.0,74,0.00,,,0.00,WeatherCatV1.02B3,2013-07-22 16:49:00,
2013-07-22 12:54:00,83.2,74.0,29.90,NE,52,1.0,3.0,74,0.00,,,0.00,WeatherCatV1.02B3,2013-07-22 16:54:00,
2013-07-22 12:59:00,83.2,74.4,29.90,ESE,112,0.0,1.0,75,0.00,,,0.00,WeatherCatV1.02B3,2013-07-22 16:59:00,
2013-07-22 13:04:00,83.2,74.4,29.90,SE,143,0.0,1.0,75,0.00,,,0.00,WeatherCatV1.02B3,2013-07-22 17:04:00,
2013-07-22 13:09:00,83.1,74.3,29.90,ENE,69,0.0,1.0,75,0.00,,,0.00,WeatherCatV1.02B3,2013-07-22 17:09:00,
2013-07-22 13:14:00,83.0,74.6,29.89,NE,37,1.0,2.0,76,0.00,,,0.00,WeatherCatV1.02B3,2013-07-22 17:14:00,
2013-07-22 13:19:00,82.5,73.8,29.90,NW,315,0.0,3.0,75,0.00,,,0.00,WeatherCatV1.02B3,2013-07-22 17:19:00,
2013-07-22 13:24:00,82.1,73.8,29.90,NNE,21,1.0,1.0,76,0.00,,,0.00,WeatherCatV1.02B3,2013-07-22 17:24:00,
2013-07-22 13:29:00,81.4,73.9,29.90,SW,225,1.0,4.0,78,0.00,,,0.00,WeatherCatV1.02B3,2013-07-22 17:29:00,
2013-07-22 13:34:00,80.6,74.2,29.90,SSE,158,1.0,2.0,81,0.00,,,0.00,WeatherCatV1.02B3,2013-07-22 17:34:00,
2013-07-22 13:39:00,79.8,74.2,29.90,North,11,0.0,1.0,83,0.00,,,0.00,WeatherCatV1.02B3,2013-07-22 17:39:00,
2013-07-22 13:44:00,79.0,74.1,29.89,NNW,340,0.0,1.0,85,0.00,,,0.01,WeatherCatV1.02B3,2013-07-22 17:44:00,
2013-07-22 13:49:00,78.4,74.2,29.89,NE,55,2.0,3.0,87,0.00,,,0.01,WeatherCatV1.02B3,2013-07-22 17:49:00,
2013-07-22 13:54:00,77.9,74.0,29.89,NE,44,0.0,1.0,88,0.08,,,0.02,WeatherCatV1.02B3,2013-07-22 17:54:00,
2013-07-22 13:59:00,77.4,74.2,29.89,NNE,32,0.0,1.0,90,0.11,,,0.03,WeatherCatV1.02B3,2013-07-22 17:59:00,
2013-07-22 14:04:00,77.1,73.9,29.89,NE,51,0.0,1.0,90,0.07,,,0.03,WeatherCatV1.02B3,2013-07-22 18:04:00,
2013-07-22 14:09:00,76.9,74.1,29.89,NNE,33,0.0,1.0,91,0.05,,,0.03,WeatherCatV1.02B3,2013-07-22 18:09:00,
2013-07-22 14:14:00,76.7,74.2,29.89,ENE,65,1.0,3.0,92,0.00,,,0.03,WeatherCatV1.02B3,2013-07-22 18:14:00,
2013-07-22 14:19:00,76.5,74.0,29.89,NE,35,1.0,3.0,92,0.00,,,0.03,WeatherCatV1.02B3,2013-07-22 18:19:00,
2013-07-22 14:24:00,76.5,74.3,29.89,NNE,19,0.0,1.0,93,0.00,,,0.03,WeatherCatV1.02B3,2013-07-22 18:24:00,
2013-07-22 14:29:00,76.6,74.4,29.89,North,11,0.0,2.0,93,0.00,,,0.03,WeatherCatV1.02B3,2013-07-22 18:29:00,
2013-07-22 14:34:00,76.9,75.4,29.89,North,2,0.0,1.0,95,0.00,,,0.03,WeatherCatV1.02B3,2013-07-22 18:34:00,
2013-07-22 14:39:00,77.2,75.3,29.89,NE,39,0.0,3.0,94,0.00,,,0.03,WeatherCatV1.02B3,2013-07-22 18:39:00,
2013-07-22 14:44:00,77.5,75.3,29.88,ENE,69,0.0,1.0,93,0.00,,,0.03,WeatherCatV1.02B3,2013-07-22 18:44:00,
2013-07-22 14:49:00,77.6,75.1,29.88,ENE,59,0.0,3.0,92,0.00,,,0.03,WeatherCatV1.02B3,2013-07-22 18:49:00,
2013-07-22 14:54:00,78.2,76.0,29.87,NE,38,2.0,2.0,93,0.00,,,0.03,WeatherCatV1.02B3,2013-07-22 18:54:00,
2013-07-22 14:59:00,78.6,76.1,29.87,North,358,1.0,2.0,92,0.00,,,0.03,WeatherCatV1.02B3,2013-07-22 18:59:00,
2013-07-22 15:04:00,79.0,75.8,29.87,NE,38,0.0,5.0,90,0.00,,,0.03,WeatherCatV1.02B3,2013-07-22 19:04:00,
2013-07-22 15:09:00,79.4,76.2,29.87,NE,38,1.0,2.0,90,0.00,,,0.03,WeatherCatV1.02B3,2013-07-22 19:09:00,
2013-07-22 15:14:00,79.8,75.9,29.87,NNW,346,0.0,4.0,88,0.00,,,0.03,WeatherCatV1.02B3,2013-07-22 19:14:00,
2013-07-22 15:19:00,80.0,75.8,29.86,ENE,72,3.0,4.0,87,0.00,,,0.03,WeatherCatV1.02B3,2013-07-22 19:19:00,
2013-07-22 15:24:00,80.0,75.8,29.86,East,86,2.0,4.0,87,0.00,,,0.03,WeatherCatV1.02B3,2013-07-22 19:24:00,
2013-07-22 15:29:00,80.2,76.3,29.85,ESE,119,1.0,1.0,88,0.00,,,0.03,WeatherCatV1.02B3,2013-07-22 19:29:00,
2013-07-22 15:34:00,80.4,75.8,29.86,NE,46,1.0,3.0,86,0.00,,,0.03,WeatherCatV1.02B3,2013-07-22 19:34:00,
2013-07-22 15:39:00,80.3,75.4,29.85,NE,48,3.0,7.0,85,0.00,,,0.03,WeatherCatV1.02B3,2013-07-22 19:39:00,
2013-07-22 15:44:00,80.2,75.6,29.85,ENE,65,1.0,1.0,86,0.00,,,0.03,WeatherCatV1.02B3,2013-07-22 19:44:00,
2013-07-22 15:49:00,80.3,75.7,29.84,ENE,60,3.0,5.0,86,0.00,,,0.03,WeatherCatV1.02B3,2013-07-22 19:49:00,
2013-07-22 15:54:00,80.2,75.6,29.84,NNE,27,1.0,4.0,86,0.00,,,0.03,WeatherCatV1.02B3,2013-07-22 19:54:00,
2013-07-22 15:59:00,80.1,75.2,29.84,South,169,1.0,5.0,85,0.00,,,0.03,WeatherCatV1.02B3,2013-07-22 19:59:00,
2013-07-22 16:04:00,80.0,75.1,29.84,NE,50,0.0,5.0,85,0.00,,,0.03,WeatherCatV1.02B3,2013-07-22 20:04:00,
2013-07-22 16:09:00,80.0,75.1,29.84,ENE,59,4.0,5.0,85,0.00,,,0.03,WeatherCatV1.02B3,2013-07-22 20:09:00,
2013-07-22 16:14:00,79.8,75.2,29.84,ENE,65,3.0,3.0,86,0.00,,,0.03,WeatherCatV1.02B3,2013-07-22 20:14:00,
2013-07-22 16:17:00,79.8,75.2,29.84,North,5,3.0,3.0,86,0.00,,,0.03,WeatherCatV1.02B3,2013-07-22 20:17:00,
2013-07-22 16:22:00,79.7,74.8,29.84,NNE,32,0.0,6.0,85,0.00,,,0.03,WeatherCatV1.02B3,2013-07-22 20:22:00,
2013-07-22 16:27:00,79.6,75.0,29.84,NW,322,0.0,5.0,86,0.00,,,0.03,WeatherCatV1.02B3,2013-07-22 20:27:00,
2013-07-22 16:32:00,79.6,75.0,29.84,NNW,343,3.0,4.0,86,0.00,,,0.03,WeatherCatV1.02B3,2013-07-22 20:32:00,
2013-07-22 16:37:00,79.4,74.8,29.84,North,6,1.0,5.0,86,0.00,,,0.03,WeatherCatV1.02B3,2013-07-22 20:37:00,
2013-07-22 16:42:00,79.3,74.7,29.84,NNW,338,0.0,5.0,86,0.00,,,0.03,WeatherCatV1.02B3,2013-07-22 20:42:00,
2013-07-22 16:47:00,79.1,74.5,29.83,NNW,344,1.0,3.0,86,0.00,,,0.03,WeatherCatV1.02B3,2013-07-22 20:47:00,
2013-07-22 16:52:00,79.0,74.8,29.83,East,79,1.0,2.0,87,0.00,,,0.03,WeatherCatV1.02B3,2013-07-22 20:52:00,
2013-07-22 16:57:00,78.9,74.7,29.83,NNE,25,1.0,1.0,87,0.00,,,0.03,WeatherCatV1.02B3,2013-07-22 20:57:00,
2013-07-22 17:02:00,78.8,74.6,29.84,SE,145,1.0,1.0,87,0.00,,,0.03,WeatherCatV1.02B3,2013-07-22 21:02:00,
2013-07-22 17:07:00,78.7,74.5,29.84,NE,52,0.0,2.0,87,0.00,,,0.03,WeatherCatV1.02B3,2013-07-22 21:07:00,
2013-07-22 17:12:00,78.7,74.5,29.84,NE,52,0.0,3.0,87,0.00,,,0.03,WeatherCatV1.02B3,2013-07-22 21:12:00,
2013-07-22 17:17:00,78.6,74.4,29.84,ENE,60,1.0,3.0,87,0.00,,,0.03,WeatherCatV1.02B3,2013-07-22 21:17:00,
2013-07-22 17:22:00,78.5,74.3,29.84,ENE,73,1.0,1.0,87,0.00,,,0.03,WeatherCatV1.02B3,2013-07-22 21:22:00,
2013-07-22 17:27:00,78.5,74.6,29.83,NNE,26,0.0,2.0,88,0.00,,,0.03,WeatherCatV1.02B3,2013-07-22 21:27:00,
2013-07-22 17:32:00,78.6,74.7,29.83,North,5,0.0,1.0,88,0.00,,,0.03,WeatherCatV1.02B3,2013-07-22 21:32:00,
2013-07-22 17:37:00,78.6,74.0,29.83,North,7,3.0,8.0,86,0.00,,,0.03,WeatherCatV1.02B3,2013-07-22 21:37:00,
2013-07-22 17:42:00,78.4,74.2,29.83,SSE,166,0.0,1.0,87,0.00,,,0.03,WeatherCatV1.02B3,2013-07-22 21:42:00,
2013-07-22 17:47:00,78.3,74.4,29.82,ENE,61,0.0,1.0,88,0.00,,,0.03,WeatherCatV1.02B3,2013-07-22 21:47:00,
2013-07-22 17:52:00,78.2,74.3,29.82,South,187,0.0,1.0,88,0.00,,,0.03,WeatherCatV1.02B3,2013-07-22 21:52:00,
2013-07-22 17:57:00,78.1,74.2,29.82,NNE,20,0.0,0.0,88,0.00,,,0.03,WeatherCatV1.02B3,2013-07-22 21:57:00,
2013-07-22 18:02:00,77.9,74.0,29.82,SE,142,1.0,2.0,88,0.00,,,0.03,WeatherCatV1.02B3,2013-07-22 22:02:00,
2013-07-22 18:07:00,77.8,73.9,29.82,NE,38,1.0,5.0,88,0.00,,,0.03,WeatherCatV1.02B3,2013-07-22 22:07:00,
2013-07-22 18:12:00,77.6,74.1,29.82,ENE,58,1.0,3.0,89,0.00,,,0.03,WeatherCatV1.02B3,2013-07-22 22:12:00,
2013-07-22 18:17:00,77.4,73.9,29.82,ENE,57,3.0,3.0,89,0.00,,,0.03,WeatherCatV1.02B3,2013-07-22 22:17:00,
2013-07-22 18:22:00,77.2,74.0,29.82,NE,38,0.0,0.0,90,0.00,,,0.04,WeatherCatV1.02B3,2013-07-22 22:22:00,
2013-07-22 18:27:00,77.1,73.9,29.82,North,9,0.0,0.0,90,0.07,,,0.05,WeatherCatV1.02B3,2013-07-22 22:27:00,
2013-07-22 18:32:00,76.9,74.1,29.82,North,10,0.0,0.0,91,0.07,,,0.05,WeatherCatV1.02B3,2013-07-22 22:32:00,
2013-07-22 18:37:00,76.8,74.3,29.83,NE,55,2.0,2.0,92,0.05,,,0.05,WeatherCatV1.02B3,2013-07-22 22:37:00,
2013-07-22 18:42:00,76.7,74.5,29.82,NE,49,1.0,2.0,93,0.04,,,0.05,WeatherCatV1.02B3,2013-07-22 22:42:00,
2013-07-22 18:47:00,76.6,74.4,29.82,NE,48,0.0,0.0,93,0.00,,,0.05,WeatherCatV1.02B3,2013-07-22 22:47:00,
2013-07-22 18:52:00,76.5,74.3,29.83,NE,49,0.0,0.0,93,0.00,,,0.05,WeatherCatV1.02B3,2013-07-22 22:52:00,
2013-07-22 18:57:00,76.4,74.5,29.82,NE,49,0.0,0.0,94,0.00,,,0.05,WeatherCatV1.02B3,2013-07-22 22:57:00,
2013-07-22 19:02:00,76.3,74.4,29.82,NNE,14,0.0,0.0,94,0.00,,,0.05,WeatherCatV1.02B3,2013-07-22 23:02:00,
2013-07-22 19:07:00,76.2,74.3,29.83,NNE,24,0.0,1.0,94,0.00,,,0.05,WeatherCatV1.02B3,2013-07-22 23:07:00,
2013-07-22 19:12:00,76.2,74.3,29.83,NNE,23,0.0,0.0,94,0.00,,,0.06,WeatherCatV1.02B3,2013-07-22 23:12:00,
2013-07-22 19:17:00,76.1,74.6,29.83,NNE,23,1.0,1.0,95,0.07,,,0.07,WeatherCatV1.02B3,2013-07-22 23:17:00,
2013-07-22 19:22:00,76.1,74.6,29.82,NNE,23,0.0,0.0,95,0.07,,,0.07,WeatherCatV1.02B3,2013-07-22 23:22:00,
2013-07-22 19:27:00,76.0,74.5,29.82,NNE,23,0.0,1.0,95,0.07,,,0.08,WeatherCatV1.02B3,2013-07-22 23:27:00,
2013-07-22 19:32:00,76.0,74.5,29.82,NNE,23,0.0,2.0,95,0.08,,,0.09,WeatherCatV1.02B3,2013-07-22 23:32:00,
2013-07-22 19:33:00,76.0,74.5,29.82,NNE,23,0.0,2.0,95,0.08,,,0.09,WeatherCatV1.02B3,2013-07-22 23:33:00,
2013-07-22 19:38:00,76.0,74.8,29.82,NNE,23,0.0,0.0,96,0.08,,,0.09,WeatherCatV1.02B3,2013-07-22 23:38:00,
2013-07-22 19:43:00,76.0,74.8,29.82,NNE,23,0.0,0.0,96,0.06,,,0.10,WeatherCatV1.02B3,2013-07-22 23:43:00,
2013-07-22 19:48:00,76.0,74.8,29.82,NNE,23,0.0,0.0,96,0.06,,,0.10,WeatherCatV1.02B3,2013-07-22 23:48:00,
2013-07-22 19:53:00,76.0,74.8,29.82,NNE,23,0.0,0.0,96,0.05,,,0.10,WeatherCatV1.02B3,2013-07-22 23:53:00,
2013-07-22 19:58:00,76.0,74.8,29.82,NNE,23,0.0,1.0,96,0.04,,,0.10,WeatherCatV1.02B3,2013-07-22 23:58:00,
2013-07-22 20:03:00,76.0,75.1,29.82,NNE,23,0.0,1.0,97,0.33,,,0.14,WeatherCatV1.02B3,2013-07-23 00:03:00,
2013-07-22 20:08:00,76.0,75.1,29.82,East,86,0.0,1.0,97,0.50,,,0.17,WeatherCatV1.02B3,2013-07-23 00:08:00,
2013-07-22 20:13:00,75.9,75.0,29.82,NE,54,0.0,1.0,97,0.11,,,0.17,WeatherCatV1.02B3,2013-07-23 00:13:00,
2013-07-22 20:18:00,75.7,74.5,29.81,NE,54,0.0,0.0,96,0.06,,,0.17,WeatherCatV1.02B3,2013-07-23 00:18:00,
2013-07-22 20:23:00,75.5,74.3,29.81,NE,54,0.0,0.0,96,0.04,,,0.17,WeatherCatV1.02B3,2013-07-23 00:23:00,
2013-07-22 20:28:00,75.4,74.2,29.81,NE,54,0.0,0.0,96,0.00,,,0.17,WeatherCatV1.02B3,2013-07-23 00:28:00,
2013-07-22 20:33:00,75.3,74.4,29.81,NE,54,0.0,0.0,97,0.00,,,0.17,WeatherCatV1.02B3,2013-07-23 00:33:00,
2013-07-22 20:38:00,75.4,74.5,29.81,NE,54,0.0,0.0,97,0.00,,,0.17,WeatherCatV1.02B3,2013-07-23 00:38:00,
2013-07-22 20:43:00,75.4,74.5,29.81,NE,54,0.0,0.0,97,0.00,,,0.17,WeatherCatV1.02B3,2013-07-23 00:43:00,
2013-07-22 20:48:00,75.5,74.6,29.81,NE,55,0.0,0.0,97,0.00,,,0.17,WeatherCatV1.02B3,2013-07-23 00:48:00,
2013-07-22 20:53:00,75.4,74.5,29.81,NE,55,0.0,0.0,97,0.00,,,0.17,WeatherCatV1.02B3,2013-07-23 00:53:00,
2013-07-22 20:58:00,75.4,74.5,29.81,NE,55,0.0,0.0,97,0.00,,,0.17,WeatherCatV1.02B3,2013-07-23 00:58:00,
2013-07-22 21:03:00,75.4,74.5,29.81,NE,55,0.0,0.0,97,0.00,,,0.17,WeatherCatV1.02B3,2013-07-23 01:03:00,
2013-07-22 21:08:00,75.4,74.5,29.81,NE,55,0.0,0.0,97,0.00,,,0.17,WeatherCatV1.02B3,2013-07-23 01:08:00,
2013-07-22 21:13:00,75.4,74.5,29.81,NE,55,0.0,0.0,97,0.00,,,0.17,WeatherCatV1.02B3,2013-07-23 01:13:00,
2013-07-22 21:18:00,75.4,74.5,29.81,NE,55,0.0,0.0,97,0.00,,,0.18,WeatherCatV1.02B3,2013-07-23 01:18:00,
2013-07-22 21:23:00,75.4,74.8,29.81,NE,55,0.0,0.0,98,0.00,,,0.18,WeatherCatV1.02B3,2013-07-23 01:23:00,
2013-07-22 21:28:00,75.5,74.9,29.81,NE,55,0.0,0.0,98,0.00,,,0.18,WeatherCatV1.02B3,2013-07-23 01:28:00,
2013-07-22 21:33:00,75.5,74.9,29.81,NE,55,0.0,1.0,98,0.00,,,0.18,WeatherCatV1.02B3,2013-07-23 01:33:00,
2013-07-22 21:38:00,75.6,75.0,29.81,NE,55,0.0,0.0,98,0.00,,,0.19,WeatherCatV1.02B3,2013-07-23 01:38:00,
2013-07-22 21:43:00,75.6,75.0,29.81,NE,55,0.0,0.0,98,0.00,,,0.19,WeatherCatV1.02B3,2013-07-23 01:43:00,
2013-07-22 21:48:00,75.6,75.0,29.81,NE,55,0.0,1.0,98,0.00,,,0.19,WeatherCatV1.02B3,2013-07-23 01:48:00,
2013-07-22 21:53:00,75.7,75.1,29.81,NE,34,0.0,1.0,98,0.00,,,0.19,WeatherCatV1.02B3,2013-07-23 01:53:00,
2013-07-22 21:58:00,75.7,75.1,29.80,NE,34,0.0,1.0,98,0.00,,,0.19,WeatherCatV1.02B3,2013-07-23 01:58:00,
2013-07-22 22:03:00,75.7,75.1,29.80,ENE,63,0.0,0.0,98,0.00,,,0.19,WeatherCatV1.02B3,2013-07-23 02:03:00,
2013-07-22 22:08:00,75.8,75.2,29.80,ENE,63,0.0,0.0,98,0.00,,,0.19,WeatherCatV1.02B3,2013-07-23 02:08:00,
2013-07-22 22:13:00,75.7,75.1,29.80,East,82,0.0,0.0,98,0.00,,,0.19,WeatherCatV1.02B3,2013-07-23 02:13:00,
2013-07-22 22:18:00,75.7,75.1,29.80,SE,138,0.0,1.0,98,0.00,,,0.20,WeatherCatV1.02B3,2013-07-23 02:18:00,
2013-07-22 22:23:00,75.7,75.1,29.80,SSE,150,0.0,0.0,98,0.00,,,0.20,WeatherCatV1.02B3,2013-07-23 02:23:00,
2013-07-22 22:28:00,75.6,75.0,29.80,ESE,107,0.0,1.0,98,0.00,,,0.20,WeatherCatV1.02B3,2013-07-23 02:28:00,
2013-07-22 22:33:00,75.6,75.0,29.80,ESE,107,0.0,0.0,98,0.00,,,0.20,WeatherCatV1.02B3,2013-07-23 02:33:00,
2013-07-22 22:38:00,75.6,75.0,29.80,ESE,107,0.0,1.0,98,0.00,,,0.20,WeatherCatV1.02B3,2013-07-23 02:38:00,
2013-07-22 22:43:00,75.6,75.0,29.80,ESE,107,0.0,0.0,98,0.00,,,0.20,WeatherCatV1.02B3,2013-07-23 02:43:00,
2013-07-22 22:48:00,75.6,75.0,29.80,SSE,152,0.0,1.0,98,0.00,,,0.20,WeatherCatV1.02B3,2013-07-23 02:48:00,
2013-07-22 22:53:00,75.5,74.9,29.80,SSE,152,0.0,0.0,98,0.00,,,0.20,WeatherCatV1.02B3,2013-07-23 02:53:00,
2013-07-22 22:58:00,75.5,74.9,29.80,SSE,152,0.0,0.0,98,0.00,,,0.20,WeatherCatV1.02B3,2013-07-23 02:58:00,
2013-07-22 23:03:00,75.5,74.9,29.80,SSE,152,0.0,0.0,98,0.00,,,0.21,WeatherCatV1.02B3,2013-07-23 03:03:00,
2013-07-22 23:08:00,75.4,74.8,29.80,SSE,152,0.0,0.0,98,0.00,,,0.21,WeatherCatV1.02B3,2013-07-23 03:08:00,
2013-07-22 23:13:00,75.3,74.7,29.80,SSE,152,0.0,0.0,98,0.00,,,0.21,WeatherCatV1.02B3,2013-07-23 03:13:00,
2013-07-22 23:18:00,75.3,74.7,29.80,SSE,152,0.0,0.0,98,0.00,,,0.21,WeatherCatV1.02B3,2013-07-23 03:18:00,
2013-07-22 23:23:00,75.3,74.7,29.79,SSE,152,0.0,2.0,98,0.00,,,0.21,WeatherCatV1.02B3,2013-07-23 03:23:00,
2013-07-22 23:28:00,75.2,74.6,29.79,SE,141,0.0,0.0,98,0.00,,,0.21,WeatherCatV1.02B3,2013-07-23 03:28:00,
2013-07-22 23:33:00,75.1,74.5,29.79,SE,141,0.0,0.0,98,0.00,,,0.21,WeatherCatV1.02B3,2013-07-23 03:33:00,
2013-07-22 23:38:00,75.1,74.5,29.79,ESE,118,0.0,0.0,98,0.00,,,0.21,WeatherCatV1.02B3,2013-07-23 03:38:00,
2013-07-22 23:43:00,75.1,74.5,29.79,ESE,118,0.0,0.0,98,0.00,,,0.21,WeatherCatV1.02B3,2013-07-23 03:43:00,
2013-07-22 23:48:00,75.1,74.8,29.78,ESE,118,0.0,0.0,99,0.00,,,0.21,WeatherCatV1.02B3,2013-07-23 03:48:00,
2013-07-22 23:53:00,75.2,74.9,29.78,ESE,118,0.0,0.0,99,0.00,,,0.21,WeatherCatV1.02B3,2013-07-23 03:53:00,
2013-07-22 23:58:00,75.2,74.9,29.78,ESE,118,0.0,0.0,99,0.00,,,0.21,WeatherCatV1.02B3,2013-07-23 03:58:00,